Chattanooga, TN

6:03 AM EST on January 18, 2018 (GMT -0500)
Lovell

Weather History for KCHA - February, 2013

Change the Weather History Date:

Wednesday, February 27, 2013

  Actual Average Record
Temperature  
Mean Temperature 48 °F 48 °F  
Max Temperature 56 °F 58 °F 78 °F (1962)
Min Temperature 40 °F 37 °F 10 °F (1963)
Degree Days  
Heating Degree Days 17 18  
Month to date heating degree days 554 560  
Since 1 July heating degree days 2292 2605  
Moisture  
Dew Point 34 °F    
Average Humidity 67    
Maximum Humidity 92    
Minimum Humidity 41    
Precipitation  
Precipitation T in 0.18 in 2.14 in (1989)
Month to date precipitation 3.94 4.67  
Year to date precipitation 13.68 9.58  
Snow  
Snow 0.00 in 0.10 in - ()
Month to date snowfall 0.3 0.6  
Since 1 July snowfall 0.3 2.6  
Snow Depth 0.00 in    
Sea Level Pressure  
Sea Level Pressure 29.84 in    
Wind  
Wind Speed 10 mph (WSW)    
Max Wind Speed 21 mph    
Max Gust Speed 28 mph    
Visibility 10 miles    
Events Rain    
T = Trace of Precipitation, MM = Missing Value Source: NWS Daily Summary

Daily Weather History Graph

Daily Weather History Graph

Search for Another Location

Airport or City:

Trip Planner

Search our weather history database for the weather conditions in past years. The results will help you decide how hot, cold, wet, or windy it might be!

Date:

Astronomy

Feb. 27, 2013 Rise Set
Actual Time 7:12 AM EST 6:34 PM EST
Civil Twilight 6:47 AM EST 7:00 PM EST
Nautical Twilight 6:17 AM EST 7:29 PM EST
Astronomical Twilight 5:48 AM EST 7:59 PM EST
Moon 8:47 PM EST (2/27) 7:53 AM EST (2/27)
Length of Visible Light 12h 13m
Length of Day
11h 22m
Waning Gibbous, 96% of the Moon is Illuminated
Feb 27
Waning Gibbous
Mar 4
Last Quarter
Mar 11
New
Mar 19
First Quarter
Mar 27
Full

Hourly Weather History & Observations

Time (EST) Temp. Windchill Dew Point Humidity Pressure Visibility Wind Dir Wind Speed Gust Speed Precip Events Conditions
12:38 AM 42.8 °F 36.6 °F 35.6 °F 76% 29.77 in 10.0 mi SSW 11.5 mph 21.9 mph N/A   Overcast
12:50 AM 42.8 °F 35.8 °F 35.6 °F 76% 29.77 in 10.0 mi SW 13.8 mph 21.9 mph N/A   Overcast
12:53 AM 43.0 °F 35.4 °F 35.1 °F 74% 29.78 in 10.0 mi SW 16.1 mph 21.9 mph N/A   Overcast
1:04 AM 42.8 °F 36.6 °F 35.6 °F 76% 29.78 in 9.0 mi WSW 11.5 mph 21.9 mph 0.00 in Rain Light Rain
1:17 AM 41.0 °F 35.2 °F 35.6 °F 81% 29.79 in 9.0 mi WSW 9.2 mph 18.4 mph 0.00 in Rain Light Rain
1:53 AM 42.1 °F 35.2 °F 35.1 °F 76% 29.80 in 10.0 mi WSW 12.7 mph - 0.00 in   Overcast
2:53 AM 39.9 °F 36.7 °F 37.0 °F 89% 29.81 in 10.0 mi SSW 4.6 mph - N/A   Overcast
3:21 AM 41.0 °F 35.8 °F 35.6 °F 81% 29.80 in 10.0 mi SW 8.1 mph - N/A   Overcast
3:53 AM 41.0 °F 38.0 °F 35.1 °F 79% 29.80 in 10.0 mi WSW 4.6 mph - N/A   Overcast
4:20 AM 41.0 °F 35.8 °F 33.8 °F 76% 29.81 in 10.0 mi WSW 8.1 mph - N/A   Overcast
4:53 AM 41.0 °F 36.4 °F 34.0 °F 76% 29.82 in 10.0 mi SW 6.9 mph - N/A   Overcast
5:53 AM 42.1 °F 37.1 °F 33.1 °F 70% 29.83 in 10.0 mi WSW 8.1 mph 16.1 mph N/A   Overcast
6:37 AM 42.8 °F 36.2 °F 33.8 °F 70% 29.83 in 10.0 mi SW 12.7 mph 18.4 mph N/A   Overcast
6:53 AM 42.1 °F 38.4 °F 33.1 °F 70% 29.83 in 10.0 mi SW 5.8 mph - N/A   Overcast
7:53 AM 41.0 °F 37.1 °F 33.1 °F 73% 29.86 in 10.0 mi West 5.8 mph - N/A   Overcast
8:53 AM 42.1 °F 37.1 °F 33.1 °F 70% 29.89 in 10.0 mi West 8.1 mph - N/A   Overcast
9:53 AM 42.1 °F 37.1 °F 33.1 °F 70% 29.91 in 10.0 mi WSW 8.1 mph - N/A   Overcast
10:53 AM 44.1 °F 40.1 °F 33.1 °F 65% 29.90 in 10.0 mi West 6.9 mph - N/A   Overcast
11:53 AM 45.0 °F 42.6 °F 33.1 °F 63% 29.89 in 10.0 mi SW 4.6 mph - N/A   Mostly Cloudy
12:25 PM 46.4 °F 41.9 °F 33.8 °F 62% 29.88 in 10.0 mi WSW 9.2 mph - N/A   Mostly Cloudy
12:53 PM 48.9 °F - 34.0 °F 56% 29.86 in 10.0 mi WSW 8.1 mph - N/A   Mostly Cloudy
1:53 PM 52.0 °F - 34.0 °F 50% 29.83 in 10.0 mi Variable 5.8 mph - N/A   Scattered Clouds
2:53 PM 55.0 °F - 34.0 °F 45% 29.81 in 10.0 mi SSW 12.7 mph - N/A   Scattered Clouds
3:53 PM 55.0 °F - 33.1 °F 43% 29.81 in 10.0 mi SW 15.0 mph 24.2 mph N/A   Scattered Clouds
4:53 PM 55.0 °F - 32.0 °F 42% 29.82 in 10.0 mi WSW 11.5 mph 24.2 mph N/A   Mostly Cloudy
5:53 PM 53.1 °F - 32.0 °F 45% 29.82 in 10.0 mi WSW 10.4 mph 21.9 mph N/A   Mostly Cloudy
6:53 PM 52.0 °F - 33.1 °F 49% 29.84 in 10.0 mi WNW 12.7 mph 16.1 mph N/A   Overcast
7:53 PM 48.9 °F - 36.0 °F 61% 29.86 in 10.0 mi WNW 6.9 mph - 0.00 in   Mostly Cloudy
8:53 PM 48.0 °F - 33.1 °F 56% 29.87 in 10.0 mi West 19.6 mph 27.6 mph N/A   Scattered Clouds
9:53 PM 45.0 °F 38.2 °F 32.0 °F 60% 29.90 in 10.0 mi West 15.0 mph 25.3 mph N/A   Scattered Clouds
10:53 PM 44.1 °F 37.4 °F 30.9 °F 60% 29.91 in 10.0 mi West 13.8 mph 20.7 mph N/A   Mostly Cloudy
11:53 PM 44.1 °F 38.6 °F 30.0 °F 58% 29.89 in 10.0 mi WSW 10.4 mph - N/A   Overcast